Andalusia, AL

9:27 AM CDT on August 19, 2017 (GMT -0500)
Andalusia

Weather History for K79J - May, 2013

Change the Weather History Date:

Friday, May 10, 2013

  Actual Average (KCEW) Record (KCEW)
Temperature  
Mean Temperature 70 °F -  
Max Temperature 80 °F 83 °F 95 °F (2011)
Min Temperature 60 °F 59 °F 46 °F (1992)
Cooling Degree Days 5    
Growing Degree Days 20 (Base 50)    
Moisture  
Dew Point 61 °F    
Average Humidity 78    
Maximum Humidity 94    
Minimum Humidity 48    
Precipitation  
Precipitation 0.00 in - - ()
Sea Level Pressure  
Sea Level Pressure 30.05 in    
Wind  
Wind Speed 3 mph (SW)    
Max Wind Speed 10 mph    
Max Gust Speed 17 mph    
Visibility 7 miles    
Events Fog , Rain    
Averages and records for this station are not official NWS values.
T = Trace of Precipitation, MM = Missing Value Source: NWS Daily Summary

Daily Weather History Graph

Daily Weather History Graph

Search for Another Location

Airport or City:

Trip Planner

Search our weather history database for the weather conditions in past years. The results will help you decide how hot, cold, wet, or windy it might be!

Date:

Astronomy

May. 10, 2013 Rise Set
Actual Time 5:52 AM CDT 7:31 PM CDT
Civil Twilight 5:26 AM CDT 7:57 PM CDT
Nautical Twilight 4:55 AM CDT 8:29 PM CDT
Astronomical Twilight 4:21 AM CDT 9:02 PM CDT
Moon 6:17 AM CDT (5/10) 8:18 PM CDT (5/10)
Length of Visible Light 14h 31m
Length of Day
13h 38m
New Moon, 0% of the Moon is Illuminated
May 10
New Moon
May 17
First Quarter
May 24
Full
May 31
Last Quarter
Jun 8
New

Hourly Weather History & Observations

Time (CDT) Temp. Heat Index Dew Point Humidity Pressure Visibility Wind Dir Wind Speed Gust Speed Precip Events Conditions
12:56 AM 63.0 °F - 59.0 °F 87% 30.08 in 9.0 mi Calm Calm - N/A   Clear
1:56 AM 62.1 °F - 57.9 °F 86% 30.05 in 5.0 mi SE 3.5 mph - N/A   Clear
2:56 AM 61.0 °F - 57.0 °F 87% 30.04 in 4.0 mi SE 3.5 mph - N/A   Clear
3:35 AM 60.8 °F - 57.2 °F 88% 30.03 in 2.5 mi Calm Calm - N/A   Clear
3:56 AM 61.0 °F - 57.9 °F 90% 30.01 in 2.0 mi SE 4.6 mph - N/A   Clear
4:55 AM 63.0 °F - 59.0 °F 87% 30.03 in 4.0 mi Calm Calm - N/A   Partly Cloudy
5:08 AM 62.6 °F - 60.8 °F 94% 30.05 in 2.5 mi Calm Calm - N/A   Mostly Cloudy
5:16 AM 62.6 °F - 59.0 °F 88% 30.05 in 1.2 mi Calm Calm - N/A   Mostly Cloudy
5:21 AM 62.6 °F - 59.0 °F 88% 30.04 in 0.8 mi Calm Calm - N/A   Overcast
5:39 AM 62.6 °F - 57.2 °F 82% 30.03 in 1.2 mi SE 4.6 mph - N/A   Overcast
5:47 AM 62.6 °F - 59.0 °F 88% 30.03 in 0.8 mi SE 4.6 mph - N/A   Mist
5:56 AM 62.1 °F - 59.0 °F 90% 30.03 in 0.5 mi SSE 3.5 mph - N/A Fog Fog
6:03 AM 62.6 °F - 59.0 °F 88% 30.04 in 0.2 mi SSE 3.5 mph - N/A Fog Fog
6:56 AM 63.0 °F - 60.1 °F 90% 30.04 in 0.2 mi Calm Calm - N/A Fog Fog
7:08 AM 64.4 °F - 60.8 °F 88% 30.05 in 1.0 mi Calm Calm - N/A   Overcast
7:28 AM 64.4 °F - 62.6 °F 94% 30.07 in 1.5 mi Calm Calm - N/A   Overcast
7:56 AM 66.0 °F - 63.0 °F 90% 30.09 in 2.0 mi WNW 3.5 mph - N/A   Overcast
8:05 AM 66.2 °F - 62.6 °F 88% 30.10 in 3.0 mi WNW 3.5 mph - N/A   Overcast
8:30 AM 66.2 °F - 64.4 °F 94% 30.08 in 6.0 mi Calm Calm - N/A   Scattered Clouds
8:56 AM 70.0 °F - 64.0 °F 81% 30.11 in 9.0 mi NNW 5.8 mph - N/A   Scattered Clouds
9:04 AM 69.8 °F - 64.4 °F 83% 30.12 in 10.0 mi NNW 3.5 mph - N/A   Mostly Cloudy
9:35 AM 71.6 °F - 64.4 °F 78% 30.13 in 10.0 mi Calm Calm - N/A   Scattered Clouds
9:56 AM 72.0 °F - 64.9 °F 78% 30.12 in 10.0 mi Calm Calm - N/A   Partly Cloudy
10:27 AM 73.4 °F - 64.4 °F 73% 30.14 in 10.0 mi NW 4.6 mph - N/A   Mostly Cloudy
10:37 AM 73.4 °F - 64.4 °F 73% 30.14 in 10.0 mi WNW 5.8 mph - N/A   Mostly Cloudy
10:56 AM 75.0 °F - 63.0 °F 66% 30.12 in 10.0 mi NW 5.8 mph - N/A   Mostly Cloudy
11:06 AM 75.2 °F - 62.6 °F 65% 30.13 in 10.0 mi West 6.9 mph - N/A   Partly Cloudy
11:56 AM 75.0 °F - 62.1 °F 64% 30.11 in 10.0 mi WSW 4.6 mph - N/A   Partly Cloudy
12:56 PM 75.9 °F - 59.0 °F 56% 30.06 in 10.0 mi SSW 10.4 mph 17.3 mph N/A   Scattered Clouds
1:56 PM 78.1 °F - 60.1 °F 54% 30.01 in 10.0 mi South 8.1 mph - 0.00 in   Clear
2:56 PM 80.1 °F 80.9 °F 60.1 °F 50% 29.99 in 10.0 mi WSW 6.9 mph - N/A   Partly Cloudy
3:56 PM 80.1 °F 80.7 °F 59.0 °F 48% 29.98 in 10.0 mi WSW 5.8 mph - N/A   Scattered Clouds
4:56 PM 80.1 °F 80.7 °F 59.0 °F 48% 29.96 in 10.0 mi West 6.9 mph - N/A   Clear
5:56 PM 77.0 °F - 61.0 °F 58% 29.94 in 10.0 mi SSW 5.8 mph - N/A   Clear
6:56 PM 75.0 °F - 62.1 °F 64% 29.96 in 10.0 mi SW 3.5 mph - N/A   Clear
7:56 PM 73.0 °F - 62.1 °F 68% 30.00 in 10.0 mi SSW 3.5 mph - N/A   Clear
8:56 PM 71.1 °F - 63.0 °F 75% 30.02 in 10.0 mi Variable 5.8 mph - N/A   Scattered Clouds
9:56 PM 70.0 °F - 63.0 °F 78% 29.99 in 10.0 mi Variable 3.5 mph - N/A   Partly Cloudy
10:28 PM 69.8 °F - 62.6 °F 78% 29.99 in 10.0 mi South 4.6 mph - N/A   Mostly Cloudy
10:56 PM 69.1 °F - 63.0 °F 81% 29.95 in 10.0 mi South 6.9 mph - N/A   Scattered Clouds
11:40 PM 69.8 °F - 64.4 °F 83% 30.04 in 10.0 mi NNW 8.1 mph - N/A   Mostly Cloudy
11:56 PM 69.1 °F - 64.0 °F 84% 30.03 in 10.0 mi NNW 5.8 mph - 0.00 in Rain Light Rain